Charleston, WV

10:40 PM EDT on September 24, 2016 (GMT -0400)
Yeager Airport

Weather History for KCRW - November, 2013

Change the Weather History Date:

Monday, November 25, 2013

  Actual Average Record
Temperature  
Mean Temperature 31 °F 44 °F  
Max Temperature 45 °F 53 °F 83 °F (1931)
Min Temperature 16 °F 34 °F 6 °F (1950)
Degree Days  
Heating Degree Days 34 21  
Month to date heating degree days 488 432  
Since 1 July heating degree days 794 772  
Cooling Degree Days 0 0  
Month to date cooling degree days 0 0  
Year to date cooling degree days 1121 1094  
Moisture  
Dew Point 15 °F    
Average Humidity 59    
Maximum Humidity 92    
Minimum Humidity 25    
Precipitation  
Precipitation T in 0.12 in 2.09 in (1999)
Month to date precipitation 1.75 3.10  
Year to date precipitation 39.55 40.13  
Snow  
Snow T in - - ()
Month to date snowfall 1.2  
Since 1 September snowfall 1.2  
Snow Depth 0.00 in    
Sea Level Pressure  
Sea Level Pressure 30.40 in    
Wind  
Wind Speed 3 mph (South)    
Max Wind Speed 17 mph    
Max Gust Speed 23 mph    
Visibility 10 miles    
Events Rain    
T = Trace of Precipitation, MM = Missing Value Source: NWS Daily Summary

Daily Weather History Graph

Daily Weather History Graph

Search for Another Location

Airport or City:

Trip Planner

Search our weather history database for the weather conditions in past years. The results will help you decide how hot, cold, wet, or windy it might be!

Date:

Astronomy

Nov. 25, 2013 Rise Set
Actual Time 7:18 AM EST 5:07 PM EST
Civil Twilight 6:49 AM EST 5:36 PM EST
Nautical Twilight 6:17 AM EST 6:09 PM EST
Astronomical Twilight 5:45 AM EST 6:40 PM EST
Moon No Moon Rise 12:38 PM EST
Length of Visible Light 10h 46m
Length of Day
9h 49m
Waning Gibbous, 51% of the Moon is Illuminated
Nov 25
Waning Gibbous
Nov 25
Last Quarter
Dec 2
New
Dec 9
First Quarter
Dec 17
Full

Hourly Weather History & Observations

Time (EST) Temp. Windchill Dew Point Humidity Pressure Visibility Wind Dir Wind Speed Gust Speed Precip Events Conditions
12:54 AM 18.0 °F - 12.0 °F 78% 30.58 in 10.0 mi Calm Calm - N/A   Clear
1:54 AM 17.1 °F - 12.9 °F 84% 30.56 in 10.0 mi Calm Calm - N/A   Clear
2:54 AM 17.1 °F - 12.0 °F 81% 30.55 in 10.0 mi Calm Calm - N/A   Clear
3:54 AM 17.1 °F - 15.1 °F 92% 30.52 in 10.0 mi Calm Calm - N/A   Clear
4:54 AM 17.1 °F - 14.0 °F 88% 30.50 in 10.0 mi Calm Calm - N/A   Clear
5:54 AM 17.1 °F 11.7 °F 14.0 °F 88% 30.50 in 9.0 mi ENE 3.5 mph - N/A   Scattered Clouds
6:54 AM 18.0 °F 12.7 °F 14.0 °F 84% 30.49 in 10.0 mi ENE 3.5 mph - N/A   Mostly Cloudy
7:54 AM 19.0 °F - 15.1 °F 85% 30.48 in 10.0 mi Calm Calm - N/A   Mostly Cloudy
8:54 AM 21.0 °F - 16.0 °F 81% 30.47 in 10.0 mi Calm Calm - N/A   Scattered Clouds
9:54 AM 28.0 °F - 16.0 °F 61% 30.46 in 10.0 mi Calm Calm - N/A   Scattered Clouds
10:54 AM 33.1 °F 28.7 °F 10.0 °F 38% 30.43 in 10.0 mi SSE 4.6 mph - N/A   Mostly Cloudy
11:45 AM 37.4 °F 33.8 °F 12.2 °F 36% 30.37 in 10.0 mi SW 4.6 mph - N/A   Mostly Cloudy
11:54 AM 37.0 °F - 12.0 °F 36% 30.40 in 10.0 mi Calm Calm - N/A   Mostly Cloudy
12:54 PM 41.0 °F 39.0 °F 9.0 °F 27% 30.34 in 10.0 mi SSW 3.5 mph - N/A   Mostly Cloudy
1:54 PM 44.1 °F 40.1 °F 10.9 °F 26% 30.33 in 10.0 mi WSW 6.9 mph - N/A   Mostly Cloudy
2:54 PM 45.0 °F 42.6 °F 12.0 °F 26% 30.30 in 10.0 mi South 4.6 mph - N/A   Mostly Cloudy
3:54 PM 45.0 °F 42.6 °F 12.0 °F 26% 30.30 in 10.0 mi South 4.6 mph - N/A   Mostly Cloudy
4:54 PM 44.1 °F - 14.0 °F 30% 30.30 in 10.0 mi Calm Calm - N/A   Overcast
5:54 PM 43.0 °F - 15.1 °F 32% 30.30 in 10.0 mi Calm Calm - N/A   Overcast
6:54 PM 39.9 °F - 17.1 °F 40% 30.30 in 10.0 mi Calm Calm - N/A   Overcast
7:54 PM 39.0 °F - 19.9 °F 46% 30.29 in 10.0 mi Calm Calm - N/A   Mostly Cloudy
8:54 PM 37.9 °F - 23.0 °F 55% 30.29 in 10.0 mi Calm Calm - N/A   Overcast
9:54 PM 43.0 °F 37.2 °F 18.0 °F 37% 30.30 in 10.0 mi WSW 10.4 mph 23.0 mph N/A   Overcast
10:54 PM 39.9 °F 30.8 °F 28.0 °F 63% 30.29 in 10.0 mi SSE 18.4 mph - 0.00 in Rain Light Rain
11:54 PM 36.0 °F 29.6 °F 34.0 °F 93% 30.26 in 9.0 mi SE 8.1 mph - 0.00 in Rain Light Rain